START_TIME,STEP,MOV.,M6,t_acc.,M7,t_acc.,M19,t_acc.,H36,t_acc.
1979-07-12 06:00:27.500 ,0,1,0.,12.0,0.,12.0,0.,12.0,0.,12.0
1979-07-12 06:00:39.500 ,0,1,1.,12.0,0.,12.0,0.,12.0,0.,12.0
1979-07-12 06:00:51.500 ,3,1,0.,12.0,0.,12.0,0.,12.0,0.,12.0
1979-07-12 06:01:03.500 ,3,1,0.,12.0,0.,12.0,0.,12.0,0.,12.0
1979-07-12 06:01:15.500 ,7,1,1.,12.0,0.,12.0,0.,12.0,0.,12.0
1979-07-12 06:01:27.500 ,7,1,0.,12.0,0.,12.0,0.,12.0,0.,12.0
1979-07-12 06:01:39.500 ,4,1,0.,12.0,0.,12.0,0.,12.0,0.,12.0
1979-07-12 06:01:51.500 ,4,1,0.,12.0,0.,12.0,0.,12.0,0.,12.0
1979-07-12 06:02:03.500 ,0,1,0.,12.0,0.,12.0,0.,12.0,0.,12.0
1979-07-12 06:02:15.500 ,0,1,0.,12.0,0.,12.0,0.,12.0,0.,12.0
1979-07-12 06:02:27.500 ,3,1,0.,12.0,0.,12.0,0.,12.0,0.,12.0
1979-07-12 06:02:39.500 ,3,1,0.,12.0,0.,12.0,0.,12.0,0.,12.0
1979-07-12 06:02:51.500 ,7,1,1.,12.0,0.,12.0,0.,12.0,0.,12.0
1979-07-12 06:03:03.500 ,7,1,0.,12.0,0.,12.0,0.,12.0,0.,12.0
1979-07-12 06:03:15.500 ,4,1,0.,12.0,0.,12.0,0.,12.0,0.,12.0
1979-07-12 06:03:27.500 ,4,1,0.,12.0,0.,12.0,0.,12.0,0.,12.0
1979-07-12 06:03:39.500 ,0,1,0.,12.0,0.,12.0,0.,12.0,0.,12.0
1979-07-12 06:03:51.500 ,0,1,0.,12.0,0.,12.0,0.,12.0,0.,12.0
1979-07-12 06:04:03.500 ,3,1,0.,12.0,0.,12.0,0.,12.0,0.,12.0
1979-07-12 06:04:15.500 ,3,1,0.,12.0,0.,12.0,0.,12.0,0.,12.0
1979-07-12 06:04:27.500 ,7,1,2.,12.0,0.,12.0,0.,12.0,1.,12.0
1979-07-12 06:04:39.500 ,7,1,3.,12.0,0.,12.0,0.,12.0,0.,12.0
1979-07-12 06:04:51.500 ,4,1,1.,12.0,0.,12.0,0.,12.0,0.,12.0
1979-07-12 06:05:03.500 ,4,1,1.,12.0,0.,12.0,0.,12.0,0.,12.0
1979-07-12 06:05:15.500 ,0,1,1.,12.0,0.,12.0,0.,12.0,0.,12.0
1979-07-12 06:05:27.500 ,0,1,1.,12.0,0.,12.0,0.,12.0,0.,12.0
1979-07-12 06:05:39.500 ,0,0,0.,12.0,0.,12.0,0.,12.0,0.,12.0
1979-07-12 06:05:51.500 ,0,0,0.,12.0,0.,12.0,0.,12.0,0.,12.0
1979-07-12 06:06:03.500 ,0,0,0.,12.0,0.,12.0,0.,12.0,0.,12.0
1979-07-12 06:06:15.500 ,0,0,1.,12.0,0.,12.0,0.,12.0,0.,12.0
1979-07-12 06:06:27.500 ,5,1,0.,12.0,0.,12.0,0.,12.0,0.,12.0
1979-07-12 06:06:39.500 ,5,1,3.,12.0,0.,12.0,0.,12.0,0.,12.0
1979-07-12 06:06:51.500 ,5,0,0.,12.0,0.,12.0,0.,12.0,0.,12.0
1979-07-12 06:07:03.500 ,5,0,1.,12.0,0.,12.0,0.,12.0,1.,12.0
1979-07-12 06:07:15.500 ,4,1,2.,12.0,0.,12.0,0.,12.0,2.,12.0
1979-07-12 06:07:27.500 ,4,1,1.,12.0,0.,12.0,0.,12.0,0.,12.0
1979-07-12 06:07:39.500 ,4,0,1.,12.0,0.,12.0,0.,12.0,1.,12.0
1979-07-12 06:07:51.500 ,4,0,1.,12.0,0.,12.0,0.,12.0,0.,12.0
1979-07-12 06:08:03.500 ,3,1,0.,12.0,0.,12.0,0.,12.0,0.,12.0
1979-07-12 06:08:15.500 ,3,1,0.,12.0,0.,12.0,0.,12.0,0.,12.0
1979-07-12 06:08:27.500 ,3,0,1.,12.0,0.,12.0,0.,12.0,0.,12.0
1979-07-12 06:08:39.500 ,3,0,1.,12.0,0.,12.0,0.,12.0,0.,12.0
1979-07-12 06:08:51.500 ,2,1,2.,12.0,0.,12.0,0.,12.0,0.,12.0
1979-07-12 06:09:03.500 ,2,1,0.,12.0,0.,12.0,0.,12.0,0.,12.0
1979-07-12 06:09:15.500 ,2,0,0.,12.0,0.,12.0,0.,12.0,0.,12.0
1979-07-12 06:09:27.500 ,2,0,0.,12.0,0.,12.0,0.,12.0,0.,12.0
1979-07-12 06:09:39.500 ,1,1,0.,12.0,0.,12.0,0.,12.0,0.,12.0
1979-07-12 06:09:51.500 ,1,1,1.,12.0,0.,12.0,0.,12.0,0.,12.0
1979-07-12 06:10:03.500 ,1,0,0.,12.0,0.,12.0,0.,12.0,0.,12.0
1979-07-12 06:10:15.500 ,1,0,1.,12.0,0.,12.0,0.,12.0,0.,12.0
1979-07-12 06:10:27.500 ,0,1,0.,12.0,0.,12.0,0.,12.0,0.,12.0
1979-07-12 06:10:39.500 ,0,1,0.,12.0,0.,12.0,0.,12.0,1.,12.0
1979-07-12 06:10:51.500 ,0,0,0.,12.0,0.,12.0,0.,12.0,0.,12.0
1979-07-12 06:11:03.500 ,0,0,0.,12.0,0.,12.0,0.,12.0,0.,12.0
1979-07-12 06:11:15.500 ,0,1,0.,12.0,0.,12.0,0.,12.0,0.,12.0
1979-07-12 06:11:27.500 ,0,1,0.,12.0,0.,12.0,0.,12.0,0.,12.0
1979-07-12 06:11:39.500 ,0,0,0.,12.0,0.,12.0,0.,12.0,0.,12.0
1979-07-12 06:11:51.500 ,0,0,1.,12.0,0.,12.0,0.,12.0,0.,12.0
1979-07-12 06:12:03.500 ,1,1,0.,12.0,0.,12.0,0.,12.0,0.,12.0
1979-07-12 06:12:15.500 ,1,1,1.,12.0,0.,12.0,0.,12.0,0.,12.0
1979-07-12 06:12:27.500 ,1,0,0.,12.0,0.,12.0,0.,12.0,0.,12.0
1979-07-12 06:12:39.500 ,1,0,0.,12.0,0.,12.0,0.,12.0,0.,12.0
1979-07-12 06:12:51.500 ,2,1,1.,12.0,0.,12.0,0.,12.0,0.,12.0
1979-07-12 06:13:03.500 ,2,1,0.,12.0,0.,12.0,0.,12.0,0.,12.0
1979-07-12 06:13:15.500 ,2,0,0.,12.0,0.,12.0,0.,12.0,0.,12.0
1979-07-12 06:13:27.500 ,2,0,1.,12.0,0.,12.0,0.,12.0,0.,12.0
1979-07-12 06:13:39.500 ,3,1,1.,12.0,0.,12.0,0.,12.0,0.,12.0
1979-07-12 06:13:51.500 ,3,1,0.,12.0,0.,12.0,0.,12.0,1.,12.0
1979-07-12 06:14:03.500 ,3,0,1.,12.0,0.,12.0,0.,12.0,0.,12.0
1979-07-12 06:14:15.500 ,3,0,3.,12.0,0.,12.0,0.,12.0,0.,12.0
1979-07-12 06:14:27.500 ,4,1,2.,12.0,0.,12.0,0.,12.0,0.,12.0
1979-07-12 06:14:39.500 ,4,1,2.,12.0,0.,12.0,0.,12.0,1.,12.0
1979-07-12 06:14:51.500 ,4,0,1.,12.0,0.,12.0,0.,12.0,0.,12.0
1979-07-12 06:15:03.500 ,4,0,0.,12.0,0.,12.0,0.,12.0,1.,12.0
1979-07-12 06:15:15.500 ,5,1,3.,12.0,0.,12.0,0.,12.0,1.,12.0
1979-07-12 06:15:27.500 ,5,1,3.,12.0,0.,12.0,0.,12.0,0.,12.0
1979-07-12 06:15:39.500 ,5,0,3.,12.0,0.,12.0,0.,12.0,1.,12.0
1979-07-12 06:15:51.500 ,5,0,2.,12.0,0.,12.0,0.,12.0,1.,12.0
1979-07-12 06:16:03.500 ,6,1,1.,12.0,0.,12.0,0.,12.0,1.,12.0
1979-07-12 06:16:15.500 ,6,1,2.,12.0,0.,12.0,0.,12.0,1.,12.0
1979-07-12 06:16:27.500 ,6,0,2.,12.0,0.,12.0,0.,12.0,0.,12.0
1979-07-12 06:16:39.500 ,6,0,0.,12.0,0.,12.0,0.,12.0,2.,12.0
1979-07-12 06:16:51.500 ,7,1,2.,12.0,0.,12.0,0.,12.0,0.,12.0
1979-07-12 06:17:03.500 ,7,1,1.,12.0,0.,12.0,0.,12.0,0.,12.0
1979-07-12 06:17:15.500 ,7,0,0.,12.0,0.,12.0,0.,12.0,0.,12.0
1979-07-12 06:17:27.500 ,7,0,0.,12.0,0.,12.0,0.,12.0,0.,12.0
1979-07-12 06:17:39.500 ,7,1,0.,12.0,0.,12.0,0.,12.0,0.,12.0
1979-07-12 06:17:51.500 ,7,1,0.,12.0,0.,12.0,0.,12.0,0.,12.0
1979-07-12 06:18:03.500 ,7,0,0.,12.0,0.,12.0,0.,12.0,0.,12.0
1979-07-12 06:18:15.500 ,7,0,0.,12.0,0.,12.0,0.,12.0,0.,12.0
1979-07-12 06:18:27.500 ,6,1,0.,12.0,0.,12.0,0.,12.0,0.,12.0
1979-07-12 06:18:39.500 ,6,1,2.,12.0,0.,12.0,0.,12.0,0.,12.0
1979-07-12 06:18:51.500 ,6,0,2.,12.0,0.,12.0,0.,12.0,0.,12.0
1979-07-12 06:19:03.500 ,6,0,0.,12.0,0.,12.0,0.,12.0,2.,12.0
1979-07-12 06:19:15.500 ,5,1,1.,12.0,0.,12.0,0.,12.0,1.,12.0
1979-07-12 06:19:27.500 ,5,1,1.,12.0,0.,12.0,0.,12.0,0.,12.0
1979-07-12 06:19:39.500 ,5,0,4.,12.0,0.,12.0,0.,12.0,1.,12.0
1979-07-12 06:19:51.500 ,5,0,2.,12.0,0.,12.0,0.,12.0,0.,12.0
1979-07-12 06:20:03.500 ,4,1,4.,12.0,0.,12.0,0.,12.0,1.,12.0
1979-07-12 06:20:15.500 ,4,1,2.,12.0,0.,12.0,0.,12.0,1.,12.0
1979-07-12 06:20:27.500 ,4,0,0.,12.0,0.,12.0,0.,12.0,0.,12.0
1979-07-12 06:20:39.500 ,4,0,0.,12.0,0.,12.0,0.,12.0,1.,12.0
1979-07-12 06:20:51.500 ,3,1,1.,12.0,0.,12.0,0.,12.0,0.,12.0
1979-07-12 06:21:03.500 ,3,1,4.,12.0,0.,12.0,0.,12.0,2.,12.0
1979-07-12 06:21:15.500 ,3,0,2.,12.0,0.,12.0,0.,12.0,2.,12.0
1979-07-12 06:21:27.500 ,3,0,2.,12.0,0.,12.0,0.,12.0,1.,12.0
1979-07-12 06:21:39.500 ,2,1,2.,12.0,0.,12.0,0.,12.0,1.,12.0
1979-07-12 06:21:51.500 ,2,1,1.,12.0,0.,12.0,0.,12.0,0.,12.0
1979-07-12 06:22:03.500 ,2,0,1.,12.0,0.,12.0,0.,12.0,0.,12.0
1979-07-12 06:22:15.500 ,2,0,2.,12.0,0.,12.0,0.,12.0,0.,12.0
1979-07-12 06:22:27.500 ,1,1,2.,12.0,0.,12.0,0.,12.0,1.,12.0
1979-07-12 06:22:39.500 ,1,1,1.,12.0,0.,12.0,0.,12.0,0.,12.0
1979-07-12 06:22:51.500 ,1,0,0.,12.0,0.,12.0,0.,12.0,0.,12.0
1979-07-12 06:23:03.500 ,1,0,0.,12.0,0.,12.0,0.,12.0,0.,12.0
1979-07-12 06:23:15.500 ,0,1,1.,12.0,0.,12.0,0.,12.0,0.,12.0
1979-07-12 06:23:27.500 ,0,1,1.,12.0,0.,12.0,0.,12.0,0.,12.0
1979-07-12 06:23:39.500 ,0,0,0.,12.0,0.,12.0,0.,12.0,1.,12.0
1979-07-12 06:23:51.500 ,0,0,1.,12.0,0.,12.0,0.,12.0,0.,12.0
1979-07-12 06:24:03.500 ,0,1,1.,12.0,0.,12.0,0.,12.0,0.,12.0
1979-07-12 06:24:15.500 ,0,1,0.,12.0,0.,12.0,0.,12.0,0.,12.0
1979-07-12 06:24:27.500 ,0,0,1.,12.0,0.,12.0,0.,12.0,0.,12.0
1979-07-12 06:24:39.500 ,0,0,2.,12.0,0.,12.0,0.,12.0,0.,12.0
1979-07-12 06:24:51.500 ,1,1,1.,12.0,0.,12.0,0.,12.0,0.,12.0
1979-07-12 06:25:03.500 ,1,1,0.,12.0,0.,12.0,0.,12.0,0.,12.0
1979-07-12 06:25:15.500 ,1,0,0.,12.0,0.,12.0,0.,12.0,0.,12.0
1979-07-12 06:25:27.500 ,1,0,0.,12.0,0.,12.0,0.,12.0,0.,12.0
1979-07-12 06:25:39.500 ,2,1,2.,12.0,0.,12.0,0.,12.0,1.,12.0
1979-07-12 06:25:51.500 ,2,1,1.,12.0,0.,12.0,0.,12.0,0.,12.0
1979-07-12 06:26:03.500 ,2,0,1.,12.0,0.,12.0,0.,12.0,1.,12.0
1979-07-12 06:26:15.500 ,2,0,0.,12.0,0.,12.0,0.,12.0,0.,12.0
1979-07-12 06:26:27.500 ,3,1,1.,12.0,0.,12.0,0.,12.0,0.,12.0
1979-07-12 06:26:39.500 ,3,1,1.,12.0,0.,12.0,0.,12.0,1.,12.0
1979-07-12 06:26:51.500 ,3,0,3.,12.0,0.,12.0,0.,12.0,0.,12.0
1979-07-12 06:27:03.500 ,3,0,3.,12.0,0.,12.0,0.,12.0,0.,12.0
1979-07-12 06:27:15.500 ,4,1,1.,12.0,0.,12.0,0.,12.0,0.,12.0
1979-07-12 06:27:27.500 ,4,1,1.,12.0,0.,12.0,0.,12.0,0.,12.0
1979-07-12 06:27:39.500 ,4,0,4.,12.0,0.,12.0,0.,12.0,0.,12.0
1979-07-12 06:27:51.500 ,4,0,1.,12.0,0.,12.0,0.,12.0,2.,12.0
1979-07-12 06:28:03.500 ,5,1,1.,12.0,0.,12.0,0.,12.0,1.,12.0
1979-07-12 06:28:15.500 ,5,1,3.,12.0,0.,12.0,0.,12.0,1.,12.0
1979-07-12 06:28:27.500 ,5,0,3.,12.0,0.,12.0,0.,12.0,1.,12.0
1979-07-12 06:28:39.500 ,5,0,9.,12.0,0.,12.0,0.,12.0,3.,12.0
1979-07-12 06:28:51.500 ,6,1,2.,12.0,0.,12.0,0.,12.0,0.,12.0
1979-07-12 06:29:03.500 ,6,1,3.,12.0,0.,12.0,0.,12.0,2.,12.0
1979-07-12 06:29:15.500 ,6,0,3.,12.0,0.,12.0,0.,12.0,1.,12.0
1979-07-12 06:29:27.500 ,6,0,3.,12.0,0.,12.0,0.,12.0,1.,12.0
1979-07-12 06:29:39.500 ,7,1,1.,12.0,0.,12.0,0.,12.0,1.,12.0
1979-07-12 06:29:51.500 ,7,1,0.,12.0,0.,12.0,0.,12.0,0.,12.0
1979-07-12 06:30:03.500 ,7,0,0.,12.0,0.,12.0,0.,12.0,0.,12.0
1979-07-12 06:30:15.500 ,7,0,0.,12.0,0.,12.0,0.,12.0,0.,12.0
1979-07-12 06:30:27.500 ,7,1,0.,12.0,0.,12.0,0.,12.0,0.,12.0
1979-07-12 06:30:39.500 ,7,1,0.,12.0,0.,12.0,0.,12.0,0.,12.0
1979-07-12 06:30:51.500 ,7,0,0.,12.0,0.,12.0,0.,12.0,0.,12.0
1979-07-12 06:31:03.500 ,7,0,0.,12.0,0.,12.0,0.,12.0,0.,12.0
1979-07-12 06:31:15.500 ,6,1,0.,12.0,0.,12.0,0.,12.0,0.,12.0
1979-07-12 06:31:27.500 ,6,1,2.,12.0,0.,12.0,0.,12.0,0.,12.0
1979-07-12 06:31:39.500 ,6,0,1.,12.0,0.,12.0,0.,12.0,3.,12.0
1979-07-12 06:31:51.500 ,6,0,5.,12.0,0.,12.0,0.,12.0,0.,12.0
1979-07-12 06:32:03.500 ,5,1,2.,12.0,0.,12.0,0.,12.0,0.,12.0
1979-07-12 06:32:15.500 ,5,1,4.,12.0,0.,12.0,0.,12.0,0.,12.0
1979-07-12 06:32:27.500 ,5,0,4.,12.0,0.,12.0,0.,12.0,2.,12.0
1979-07-12 06:32:39.500 ,5,0,7.,12.0,0.,12.0,0.,12.0,2.,12.0
1979-07-12 06:32:51.500 ,4,1,3.,12.0,0.,12.0,0.,12.0,3.,12.0
1979-07-12 06:33:03.500 ,4,1,1.,12.0,0.,12.0,0.,12.0,0.,12.0
1979-07-12 06:33:15.500 ,4,0,2.,12.0,0.,12.0,0.,12.0,2.,12.0
1979-07-12 06:33:27.500 ,4,0,5.,12.0,0.,12.0,0.,12.0,1.,12.0
1979-07-12 06:33:39.500 ,3,1,2.,12.0,0.,12.0,0.,12.0,0.,12.0
1979-07-12 06:33:51.500 ,3,1,2.,12.0,0.,12.0,0.,12.0,1.,12.0
1979-07-12 06:34:03.500 ,3,0,3.,12.0,0.,12.0,0.,12.0,0.,12.0
1979-07-12 06:34:15.500 ,3,0,3.,12.0,0.,12.0,0.,12.0,0.,12.0
1979-07-12 06:34:27.500 ,2,1,2.,12.0,0.,12.0,0.,12.0,1.,12.0
1979-07-12 06:34:39.500 ,2,1,0.,12.0,0.,12.0,0.,12.0,1.,12.0
1979-07-12 06:34:51.500 ,2,0,4.,12.0,0.,12.0,0.,12.0,1.,12.0
1979-07-12 06:35:03.500 ,2,0,1.,12.0,0.,12.0,0.,12.0,1.,12.0
1979-07-12 06:35:15.500 ,1,1,4.,12.0,0.,12.0,0.,12.0,0.,12.0
1979-07-12 06:35:27.500 ,1,1,4.,12.0,0.,12.0,0.,12.0,2.,12.0
1979-07-12 06:35:39.500 ,1,0,1.,12.0,0.,12.0,0.,12.0,0.,12.0
1979-07-12 06:35:51.500 ,1,0,1.,12.0,0.,12.0,0.,12.0,0.,12.0
1979-07-12 06:36:03.500 ,0,1,3.,12.0,0.,12.0,0.,12.0,0.,12.0
1979-07-12 06:36:15.500 ,0,1,1.,12.0,0.,12.0,0.,12.0,0.,12.0
1979-07-12 06:36:27.500 ,0,0,1.,12.0,0.,12.0,0.,12.0,0.,12.0
1979-07-12 06:36:39.500 ,0,0,1.,12.0,0.,12.0,0.,12.0,0.,12.0
1979-07-12 06:36:51.500 ,0,1,2.,12.0,0.,12.0,0.,12.0,0.,12.0
1979-07-12 06:37:03.500 ,0,1,2.,12.0,0.,12.0,0.,12.0,0.,12.0
1979-07-12 06:37:15.500 ,0,0,2.,12.0,0.,12.0,0.,12.0,1.,12.0
1979-07-12 06:37:27.500 ,0,0,3.,12.0,0.,12.0,0.,12.0,1.,12.0
1979-07-12 06:37:39.500 ,1,1,4.,12.0,0.,12.0,0.,12.0,1.,12.0
1979-07-12 06:37:51.500 ,1,1,3.,12.0,0.,12.0,0.,12.0,1.,12.0
1979-07-12 06:38:03.500 ,1,0,2.,12.0,0.,12.0,0.,12.0,1.,12.0
1979-07-12 06:38:15.500 ,1,0,6.,12.0,0.,12.0,0.,12.0,3.,12.0
1979-07-12 06:38:27.500 ,2,1,4.,12.0,0.,12.0,0.,12.0,1.,12.0
1979-07-12 06:38:39.500 ,2,1,2.,12.0,0.,12.0,0.,12.0,3.,12.0
1979-07-12 06:38:51.500 ,2,0,6.,12.0,0.,12.0,0.,12.0,0.,12.0
1979-07-12 06:39:03.500 ,2,0,10.,12.0,0.,12.0,0.,12.0,2.,12.0
1979-07-12 06:39:15.500 ,3,1,6.,12.0,0.,12.0,0.,12.0,1.,12.0
1979-07-12 06:39:27.500 ,3,1,3.,12.0,0.,12.0,0.,12.0,3.,12.0
1979-07-12 06:39:39.500 ,3,0,8.,12.0,0.,12.0,0.,12.0,1.,12.0
1979-07-12 06:39:51.500 ,3,0,2.,12.0,0.,12.0,0.,12.0,0.,12.0
1979-07-12 06:40:03.500 ,4,1,6.,12.0,0.,12.0,0.,12.0,0.,12.0
1979-07-12 06:40:15.500 ,4,1,11.,12.0,0.,12.0,0.,12.0,2.,12.0
1979-07-12 06:40:27.500 ,4,0,8.,12.0,0.,12.0,0.,12.0,3.,12.0
1979-07-12 06:40:39.500 ,4,0,7.,12.0,0.,12.0,0.,12.0,1.,12.0
1979-07-12 06:40:51.500 ,5,1,6.,12.0,0.,12.0,0.,12.0,1.,12.0
1979-07-12 06:41:03.500 ,5,1,13.,12.0,0.,12.0,0.,12.0,3.,12.0
1979-07-12 06:41:15.500 ,5,0,13.,12.0,0.,12.0,0.,12.0,3.,12.0
1979-07-12 06:41:27.500 ,5,0,15.,12.0,0.,12.0,0.,12.0,8.,12.0
1979-07-12 06:41:39.500 ,6,1,9.,12.0,0.,12.0,0.,12.0,1.,12.0
1979-07-12 06:41:51.500 ,6,1,7.,12.0,0.,12.0,0.,12.0,1.,12.0
1979-07-12 06:42:03.500 ,6,0,8.,12.0,0.,12.0,0.,12.0,2.,12.0
1979-07-12 06:42:15.500 ,6,0,6.,12.0,0.,12.0,0.,12.0,1.,12.0
1979-07-12 06:42:27.500 ,7,0,11.,12.0,0.,12.0,0.,12.0,2.,12.0
1979-07-12 06:42:39.500 ,7,0,2.,12.0,0.,12.0,0.,12.0,0.,12.0
1979-07-12 06:42:51.500 ,7,0,0.,12.0,0.,12.0,0.,12.0,0.,12.0
1979-07-12 06:43:03.500 ,7,0,0.,12.0,0.,12.0,0.,12.0,0.,12.0
1979-07-12 06:43:15.500 ,4,1,1.,12.0,0.,12.0,0.,12.0,1.,12.0
1979-07-12 06:43:27.500 ,4,1,11.,12.0,0.,12.0,0.,12.0,2.,12.0
1979-07-12 06:43:39.500 ,0,1,4.,12.0,0.,12.0,0.,12.0,1.,12.0
1979-07-12 06:43:51.500 ,0,1,2.,12.0,0.,12.0,0.,12.0,0.,12.0
1979-07-12 06:44:03.500 ,3,1,5.,12.0,0.,12.0,0.,12.0,1.,12.0
1979-07-12 06:44:15.500 ,3,1,3.,12.0,0.,12.0,0.,12.0,1.,12.0
1979-07-12 06:44:27.500 ,7,1,13.,12.0,0.,12.0,0.,12.0,1.,12.0
1979-07-12 06:44:39.500 ,7,1,7.,12.0,0.,12.0,0.,12.0,3.,12.0
1979-07-12 06:44:51.500 ,4,1,3.,12.0,0.,12.0,0.,12.0,0.,12.0
1979-07-12 06:45:03.500 ,4,1,14.,12.0,0.,12.0,0.,12.0,4.,12.0
1979-07-12 06:45:15.500 ,0,1,7.,12.0,0.,12.0,0.,12.0,4.,12.0
1979-07-12 06:45:27.500 ,0,1,3.,12.0,0.,12.0,0.,12.0,2.,12.0
1979-07-12 06:45:39.500 ,3,1,4.,12.0,0.,12.0,0.,12.0,0.,12.0
1979-07-12 06:45:51.500 ,3,1,8.,12.0,0.,12.0,0.,12.0,1.,12.0
1979-07-12 06:46:03.500 ,7,1,7.,12.0,0.,12.0,0.,12.0,2.,12.0
1979-07-12 06:46:15.500 ,7,1,9.,12.0,0.,12.0,0.,12.0,3.,12.0
1979-07-12 06:46:27.500 ,4,1,3.,12.0,0.,12.0,0.,12.0,1.,12.0
1979-07-12 06:46:39.500 ,4,1,13.,12.0,0.,12.0,0.,12.0,6.,12.0
1979-07-12 06:46:51.500 ,0,1,5.,12.0,0.,12.0,0.,12.0,2.,12.0
1979-07-12 06:47:03.500 ,0,1,7.,12.0,0.,12.0,0.,12.0,4.,12.0
1979-07-12 06:47:15.500 ,3,1,9.,12.0,0.,12.0,0.,12.0,2.,12.0
1979-07-12 06:47:27.500 ,3,1,5.,12.0,0.,12.0,0.,12.0,1.,12.0
1979-07-12 06:47:39.500 ,7,1,12.,12.0,0.,12.0,0.,12.0,2.,12.0
1979-07-12 06:47:51.500 ,7,1,6.,12.0,0.,12.0,0.,12.0,3.,12.0
1979-07-12 06:48:03.500 ,4,1,3.,12.0,0.,12.0,0.,12.0,1.,12.0
1979-07-12 06:48:15.500 ,4,1,11.,12.0,0.,12.0,0.,12.0,2.,12.0
1979-07-12 06:48:27.500 ,0,1,9.,12.0,0.,12.0,0.,12.0,3.,12.0
1979-07-12 06:48:39.500 ,0,1,10.,12.0,0.,12.0,0.,12.0,0.,12.0
1979-07-12 06:48:51.500 ,3,1,6.,12.0,0.,12.0,0.,12.0,0.,12.0
1979-07-12 06:49:03.500 ,3,1,6.,12.0,0.,12.0,0.,12.0,0.,12.0
1979-07-12 06:49:15.500 ,7,1,6.,12.0,0.,12.0,0.,12.0,2.,12.0
1979-07-12 06:49:27.500 ,7,1,9.,12.0,0.,12.0,0.,12.0,2.,12.0
1979-07-12 06:49:39.500 ,4,1,6.,12.0,0.,12.0,0.,12.0,0.,12.0
1979-07-12 06:49:51.500 ,4,1,9.,12.0,0.,12.0,0.,12.0,4.,12.0
1979-07-12 06:50:03.500 ,0,1,7.,12.0,0.,12.0,0.,12.0,0.,12.0
1979-07-12 06:50:15.500 ,0,1,5.,12.0,0.,12.0,0.,12.0,1.,12.0
1979-07-12 06:50:27.500 ,3,1,8.,12.0,0.,12.0,0.,12.0,0.,12.0
1979-07-12 06:50:39.500 ,3,1,3.,12.0,0.,12.0,0.,12.0,0.,12.0
1979-07-12 06:50:51.500 ,7,1,10.,12.0,0.,12.0,0.,12.0,1.,12.0
1979-07-12 06:51:03.500 ,7,1,7.,12.0,0.,12.0,0.,12.0,3.,12.0
1979-07-12 06:51:15.500 ,4,1,4.,12.0,0.,12.0,0.,12.0,1.,12.0
1979-07-12 06:51:27.500 ,4,1,14.,12.0,0.,12.0,0.,12.0,6.,12.0
1979-07-12 06:51:39.500 ,0,1,8.,12.0,0.,12.0,0.,12.0,2.,12.0
1979-07-12 06:51:51.500 ,0,1,8.,12.0,0.,12.0,0.,12.0,1.,12.0
1979-07-12 06:52:03.500 ,3,1,3.,12.0,0.,12.0,0.,12.0,1.,12.0
1979-07-12 06:52:15.500 ,3,1,7.,12.0,0.,12.0,0.,12.0,1.,12.0
1979-07-12 06:52:27.500 ,7,1,12.,12.0,0.,12.0,0.,12.0,4.,12.0
1979-07-12 06:52:39.500 ,7,1,5.,12.0,0.,12.0,0.,12.0,4.,12.0
1979-07-12 06:52:51.500 ,4,1,3.,12.0,0.,12.0,0.,12.0,1.,12.0
1979-07-12 06:53:03.500 ,4,1,11.,12.0,0.,12.0,0.,12.0,4.,12.0
1979-07-12 06:53:15.500 ,0,0,,0,,0,,0,,0
1979-07-12 06:53:27.500 ,0,0,,0,,0,,0,,0
1979-07-12 06:54:05.300 ,0,0,15.,12.0,0.,12.0,0.,12.0,0.,12.0
1979-07-12 06:54:17.300 ,0,0,10.,12.0,0.,12.0,0.,12.0,3.,12.0
1979-07-12 06:54:27.500 ,5,1,6.,12.0,0.,12.0,0.,12.0,1.,12.0
1979-07-12 06:54:39.500 ,5,1,10.,12.0,0.,12.0,0.,12.0,2.,12.0
1979-07-12 06:54:51.500 ,5,0,18.,12.0,0.,12.0,0.,12.0,1.,12.0
1979-07-12 06:55:03.500 ,5,0,20.,12.0,0.,12.0,0.,12.0,3.,12.0
1979-07-12 06:55:15.500 ,4,1,20.,12.0,0.,12.0,0.,12.0,0.,12.0
1979-07-12 06:55:27.500 ,4,1,8.,12.0,0.,12.0,0.,12.0,2.,12.0
1979-07-12 06:55:39.500 ,4,0,12.,12.0,0.,12.0,0.,12.0,2.,12.0
1979-07-12 06:55:51.500 ,4,0,5.,12.0,0.,12.0,0.,12.0,1.,12.0
1979-07-12 06:56:03.500 ,3,1,12.,12.0,0.,12.0,0.,12.0,1.,12.0
1979-07-12 06:56:15.500 ,3,1,9.,12.0,0.,12.0,0.,12.0,1.,12.0
1979-07-12 06:56:27.500 ,3,0,5.,12.0,0.,12.0,0.,12.0,1.,12.0
1979-07-12 06:56:39.500 ,3,0,8.,12.0,0.,12.0,0.,12.0,1.,12.0
1979-07-12 06:56:51.500 ,2,1,11.,12.0,0.,12.0,0.,12.0,2.,12.0
1979-07-12 06:57:03.500 ,2,1,3.,12.0,0.,12.0,0.,12.0,2.,12.0
1979-07-12 06:57:15.500 ,2,0,4.,12.0,0.,12.0,0.,12.0,2.,12.0
1979-07-12 06:57:27.500 ,2,0,7.,12.0,0.,12.0,0.,12.0,2.,12.0
1979-07-12 06:57:39.500 ,1,1,4.,12.0,0.,12.0,0.,12.0,2.,12.0
1979-07-12 06:57:51.500 ,1,1,8.,12.0,0.,12.0,0.,12.0,4.,12.0
1979-07-12 06:58:03.500 ,1,0,8.,12.0,0.,12.0,0.,12.0,0.,12.0
1979-07-12 06:58:15.500 ,1,0,5.,12.0,0.,12.0,0.,12.0,1.,12.0
1979-07-12 06:58:27.500 ,0,1,6.,12.0,0.,12.0,0.,12.0,3.,12.0
1979-07-12 06:58:39.500 ,0,1,6.,12.0,0.,12.0,0.,12.0,4.,12.0
1979-07-12 06:58:51.500 ,0,0,2.,12.0,0.,12.0,0.,12.0,1.,12.0
1979-07-12 06:59:03.500 ,0,0,4.,12.0,0.,12.0,0.,12.0,2.,12.0
1979-07-12 06:59:15.500 ,0,1,7.,12.0,0.,12.0,0.,12.0,1.,12.0
1979-07-12 06:59:27.500 ,0,1,4.,12.0,0.,12.0,0.,12.0,1.,12.0
1979-07-12 06:59:39.500 ,0,0,6.,12.0,0.,12.0,0.,12.0,0.,12.0
1979-07-12 06:59:51.500 ,0,0,5.,12.0,0.,12.0,0.,12.0,1.,12.0
1979-07-12 07:00:03.500 ,1,1,7.,12.0,0.,12.0,0.,12.0,1.,12.0
1979-07-12 07:00:15.500 ,1,1,8.,12.0,0.,12.0,0.,12.0,2.,12.0
1979-07-12 07:00:27.500 ,1,0,8.,12.0,0.,12.0,0.,12.0,1.,12.0
1979-07-12 07:00:39.500 ,1,0,2.,12.0,0.,12.0,0.,12.0,2.,12.0
1979-07-12 07:00:51.500 ,2,1,9.,12.0,0.,12.0,0.,12.0,5.,12.0
1979-07-12 07:01:03.500 ,2,1,13.,12.0,0.,12.0,0.,12.0,1.,12.0
1979-07-12 07:01:15.500 ,2,0,7.,12.0,0.,12.0,0.,12.0,1.,12.0
1979-07-12 07:01:27.500 ,2,0,7.,12.0,0.,12.0,0.,12.0,0.,12.0
1979-07-12 07:01:39.500 ,3,1,8.,12.0,0.,12.0,0.,12.0,0.,12.0
1979-07-12 07:01:51.500 ,3,1,8.,12.0,0.,12.0,0.,12.0,2.,12.0
1979-07-12 07:02:03.500 ,3,0,9.,12.0,0.,12.0,0.,12.0,1.,12.0
1979-07-12 07:02:15.500 ,3,0,12.,12.0,0.,12.0,0.,12.0,0.,12.0
1979-07-12 07:02:27.500 ,4,1,7.,12.0,0.,12.0,0.,12.0,0.,12.0
1979-07-12 07:02:39.500 ,4,1,7.,12.0,0.,12.0,0.,12.0,2.,12.0
1979-07-12 07:02:51.500 ,4,0,8.,12.0,0.,12.0,0.,12.0,4.,12.0
1979-07-12 07:03:03.500 ,4,0,12.,12.0,0.,12.0,0.,12.0,1.,12.0
1979-07-12 07:03:15.500 ,5,1,12.,12.0,0.,12.0,0.,12.0,2.,12.0
1979-07-12 07:03:27.500 ,5,1,12.,12.0,0.,12.0,0.,12.0,5.,12.0
1979-07-12 07:03:39.500 ,5,0,10.,12.0,0.,12.0,0.,12.0,1.,12.0
1979-07-12 07:03:51.500 ,5,0,17.,12.0,0.,12.0,0.,12.0,1.,12.0
1979-07-12 07:04:03.500 ,6,1,16.,12.0,0.,12.0,0.,12.0,3.,12.0
1979-07-12 07:04:15.500 ,6,1,12.,12.0,0.,12.0,0.,12.0,3.,12.0
1979-07-12 07:04:27.500 ,6,0,8.,12.0,0.,12.0,0.,12.0,1.,12.0
1979-07-12 07:04:39.500 ,6,0,7.,12.0,0.,12.0,0.,12.0,0.,12.0
1979-07-12 07:04:51.500 ,7,1,15.,12.0,0.,12.0,0.,12.0,3.,12.0
1979-07-12 07:05:03.500 ,7,1,2.,12.0,0.,12.0,0.,12.0,0.,12.0
1979-07-12 07:05:15.500 ,7,0,0.,12.0,0.,12.0,0.,12.0,0.,12.0
1979-07-12 07:05:27.500 ,7,0,0.,12.0,0.,12.0,0.,12.0,0.,12.0
1979-07-12 07:05:39.490 ,7,1,0.,12.0,0.,12.0,0.,12.0,0.,12.0
1979-07-12 07:05:51.490 ,7,1,0.,12.0,0.,12.0,0.,12.0,0.,12.0
1979-07-12 07:06:03.490 ,7,0,0.,12.0,0.,12.0,0.,12.0,0.,12.0
1979-07-12 07:06:15.490 ,7,0,0.,12.0,0.,12.0,0.,12.0,0.,12.0
1979-07-12 07:06:27.490 ,6,1,0.,12.0,0.,12.0,0.,12.0,0.,12.0
1979-07-12 07:06:39.490 ,6,1,4.,12.0,0.,12.0,0.,12.0,4.,12.0
1979-07-12 07:06:51.490 ,6,0,5.,12.0,0.,12.0,0.,12.0,0.,12.0
1979-07-12 07:07:03.490 ,6,0,9.,12.0,0.,12.0,0.,12.0,1.,12.0
1979-07-12 07:07:15.490 ,5,1,10.,12.0,0.,12.0,0.,12.0,1.,12.0
1979-07-12 07:07:27.490 ,5,1,6.,12.0,0.,12.0,0.,12.0,2.,12.0
1979-07-12 07:07:39.490 ,5,0,8.,12.0,0.,12.0,0.,12.0,3.,12.0
1979-07-12 07:07:51.490 ,5,0,9.,12.0,0.,12.0,0.,12.0,1.,12.0
1979-07-12 07:08:03.490 ,4,1,15.,12.0,0.,12.0,0.,12.0,3.,12.0
1979-07-12 07:08:15.490 ,4,1,10.,12.0,0.,12.0,0.,12.0,3.,12.0
1979-07-12 07:08:27.490 ,4,0,6.,12.0,0.,12.0,0.,12.0,1.,12.0
1979-07-12 07:08:39.490 ,4,0,8.,12.0,0.,12.0,0.,12.0,3.,12.0
1979-07-12 07:08:51.490 ,3,1,8.,12.0,0.,12.0,0.,12.0,1.,12.0
1979-07-12 07:09:03.500 ,3,1,12.,12.0,0.,12.0,0.,12.0,1.,12.0
1979-07-12 07:09:15.490 ,3,0,14.,12.0,0.,12.0,0.,12.0,4.,12.0
1979-07-12 07:09:27.500 ,3,0,5.,12.0,0.,12.0,0.,12.0,1.,12.0
1979-07-12 07:09:39.490 ,2,1,9.,12.0,0.,12.0,0.,12.0,3.,12.0
1979-07-12 07:09:51.500 ,2,1,7.,12.0,0.,12.0,0.,12.0,2.,12.0
1979-07-12 07:10:03.490 ,2,0,3.,12.0,0.,12.0,0.,12.0,0.,12.0
1979-07-12 07:10:15.500 ,2,0,3.,12.0,0.,12.0,0.,12.0,1.,12.0
1979-07-12 07:10:27.490 ,1,1,6.,12.0,0.,12.0,0.,12.0,2.,12.0
1979-07-12 07:10:39.500 ,1,1,7.,12.0,0.,12.0,0.,12.0,1.,12.0
1979-07-12 07:10:51.490 ,1,0,6.,12.0,0.,12.0,0.,12.0,2.,12.0
1979-07-12 07:11:03.500 ,1,0,4.,12.0,0.,12.0,0.,12.0,1.,12.0
1979-07-12 07:11:15.490 ,0,1,4.,12.0,0.,12.0,0.,12.0,2.,12.0
1979-07-12 07:11:27.500 ,0,1,5.,12.0,0.,12.0,0.,12.0,0.,12.0
1979-07-12 07:11:39.490 ,0,0,4.,12.0,0.,12.0,0.,12.0,0.,12.0
1979-07-12 07:11:51.500 ,0,0,5.,12.0,0.,12.0,0.,12.0,0.,12.0
1979-07-12 07:12:03.490 ,0,1,0.,12.0,0.,12.0,0.,12.0,2.,12.0
1979-07-12 07:12:15.500 ,0,1,2.,12.0,0.,12.0,0.,12.0,2.,12.0
1979-07-12 07:12:27.490 ,0,0,4.,12.0,0.,12.0,0.,12.0,0.,12.0
1979-07-12 07:12:39.500 ,0,0,4.,12.0,0.,12.0,0.,12.0,1.,12.0
1979-07-12 07:12:51.490 ,1,1,3.,12.0,0.,12.0,0.,12.0,1.,12.0
1979-07-12 07:13:03.500 ,1,1,3.,12.0,0.,12.0,0.,12.0,1.,12.0
1979-07-12 07:13:15.490 ,1,0,4.,12.0,0.,12.0,0.,12.0,0.,12.0
1979-07-12 07:13:27.500 ,1,0,3.,12.0,0.,12.0,0.,12.0,3.,12.0
1979-07-12 07:13:39.490 ,2,1,5.,12.0,0.,12.0,0.,12.0,0.,12.0
1979-07-12 07:13:51.500 ,2,1,1.,12.0,0.,12.0,0.,12.0,0.,12.0
1979-07-12 07:14:03.490 ,2,0,2.,12.0,0.,12.0,0.,12.0,0.,12.0
1979-07-12 07:14:15.500 ,2,0,2.,12.0,0.,12.0,0.,12.0,0.,12.0
1979-07-12 07:14:27.490 ,3,1,0.,12.0,0.,12.0,0.,12.0,0.,12.0
1979-07-12 07:14:39.500 ,3,1,4.,12.0,0.,12.0,0.,12.0,0.,12.0
1979-07-12 07:14:51.490 ,3,0,3.,12.0,0.,12.0,0.,12.0,0.,12.0
1979-07-12 07:15:03.500 ,3,0,5.,12.0,0.,12.0,0.,12.0,1.,12.0
1979-07-12 07:15:15.490 ,4,1,2.,12.0,0.,12.0,0.,12.0,1.,12.0
1979-07-12 07:15:27.500 ,4,1,7.,12.0,0.,12.0,0.,12.0,0.,12.0
1979-07-12 07:15:39.490 ,4,0,6.,12.0,0.,12.0,0.,12.0,0.,12.0
1979-07-12 07:15:51.500 ,4,0,5.,12.0,0.,12.0,0.,12.0,1.,12.0
1979-07-12 07:16:03.490 ,5,1,2.,12.0,0.,12.0,0.,12.0,2.,12.0
1979-07-12 07:16:15.500 ,5,1,6.,12.0,0.,12.0,0.,12.0,1.,12.0
1979-07-12 07:16:27.490 ,5,0,11.,12.0,0.,12.0,0.,12.0,2.,12.0
1979-07-12 07:16:39.500 ,5,0,13.,12.0,0.,12.0,0.,12.0,3.,12.0
1979-07-12 07:16:51.490 ,6,1,13.,12.0,0.,12.0,0.,12.0,3.,12.0
1979-07-12 07:17:03.500 ,6,1,5.,12.0,0.,12.0,0.,12.0,2.,12.0
1979-07-12 07:17:15.490 ,6,0,4.,12.0,0.,12.0,0.,12.0,0.,12.0
1979-07-12 07:17:27.490 ,6,0,11.,12.0,0.,12.0,0.,12.0,3.,12.0
1979-07-12 07:17:39.490 ,7,1,7.,12.0,0.,12.0,0.,12.0,0.,12.0